COSMOS 1823 DEB

Satellite information

Favourite Embed

Satellite Type and Status

DEBRISIN ORBIT

Key statistics

Satellite COSMOS 1823 DEB at a glance.

Uptime

14136

Days in orbit

Revolutions

≈ 12.5

Per day

Orbit

LEO

Low Earth Orbit

Inclination

73.6

Latest

Satellite identification and parameters

Extended collection of information and parameters for COSMOS 1823 DEB.

Object identification

Identified? True

Debris? True

Object name: COSMOS 1823 DEB

International designator: 1987-020EU

Object number (NORAD): 39820

Object ID (CCSDS): 39820

Country: COMMONWEALTH OF INDEPENDENT STATES (CIS)

Current information (Y/N): Y

RCS size: SMALL

Orbital parameters

Period: 115.599 minutes

Inclination: 73.6321 deg

SMA: 7860.727 km

Apoapsis: 1497.938 km

Periapsis: 1467.246 km

RAAN: 287.0856 deg

Eccentricy: 0.00195228

Argument of periapsis: 48.9944 deg

Mean anomaly: 70.4298 deg

Mean motion: 12.45686282 rev/day

Mean motion (dot): 0.00000178 rev/day2

B* drag term: 0.0013572096 1/REarth

Two-line elements (TLE)

Creation date: Oct. 31, 2025, 3 a.m.

Reference frame: TEME

Reference center: EARTH

Epoch: Oct. 30, 2025, 3:44 p.m. UTC

TLE line 0: 0 COSMOS 1823 DEB

TLE line 1: 1 39820U 87020EU 25303.65613722 .00000178 00000-0 13572-2 0 9990

TLE line 2: 2 39820 73.6321 287.0856 0019523 48.9944 70.4298 12.45686282518693

Live tracking on map

Real-time ground track for satellite COSMOS 1823 DEB.

In-orbit conjunctions

A list of the most updated potential collisions computed for object COSMOS 1823 DEB.

Target Orbit TCA Probability of collision Miss distance Type
NOAA 1 SSO 2025-05-21 03:30:35 0.0002322447 52.0 (m) PAYLOAD
COSMOS 1088 LEO 2025-02-18 20:17:10 0.0008748569 162.0 (m) PAYLOAD
COSMOS 2014 LEO 2024-11-19 00:18:20 0.0002522591 320.0 (m) PAYLOAD

Associated space launch

A satellite for the GEO-IK geodetic system

COSMOS 1823 DEB was lifted into orbit during the mission ‘Tsiklon-3 | Geo-IK 9’, on board a Tsiklon-3 space rocket.

The launch took place on Feb. 20, 1987, 4:43 a.m. from 32/2.

For more information about the launch, click the button.

Launch to space Tsiklon-3 | Geo-IK 9
Tsiklon-3 | Geo-IK 9

Agency: N/A

Status: Launch Successful

Launch date: Feb. 20, 1987, 4:43 a.m. UTC

Rocket: Tsiklon-3

Launch pad: 32/2

Location: Plesetsk Cosmodrome, Russian Federation

...

Latest news about this satellite

There are no fresh news available about this satellite. Check back as we update our databases every day.


Newsletter sign-up

Weekly statistics, charts and insights to help you stay on top of the space industry.